| time (UTC) | temp F | wind direction | speed MPH | gust MPH | rain 1hr in | rain 24hr in | rain mn in | humidity % | barometer mb |
| 20260906110057 | 64 | 319 | 7.0 | 11.0 | 0.00 | 0.00 | 0.00 | 94 | 1012.3 |
| 20260906104552 | 64 | 304 | 9.0 | 11.0 | 0.00 | 0.00 | 0.00 | 94 | 1012.3 |
| 20260906103051 | 64 | 318 | 8.0 | 10.0 | 0.00 | 0.00 | 0.00 | 94 | 1012.2 |
| 20260906101549 | 64 | 29 | 3.0 | 5.0 | 0.00 | 0.00 | 0.00 | 94 | 1011.9 |
| 20260906100054 | 64 | 31 | 5.0 | 7.0 | 0.00 | 0.00 | 0.00 | 94 | 1011.5 |
| 20260906094548 | 64 | 40 | 6.0 | 7.0 | 0.00 | 0.00 | 0.00 | 93 | 1011.5 |
| 20260906093045 | 65 | 31 | 7.0 | 10.0 | 0.00 | 0.00 | 0.00 | 93 | 1011.7 |
| 20260906091545 | 65 | 22 | 8.0 | 11.0 | 0.00 | 0.00 | 0.00 | 93 | 1011.7 |
| 20260906090041 | 66 | 17 | 9.0 | 11.0 | 0.00 | 0.00 | 0.00 | 92 | 1011.5 |
| 20260906084540 | 66 | 13 | 10.0 | 14.0 | 0.00 | 0.00 | 0.00 | 92 | 1011.5 |
| 20260906083036 | 66 | 8 | 10.0 | 11.0 | 0.00 | 0.00 | 0.00 | 92 | 1011.5 |
| 20260906081534 | 66 | 17 | 8.0 | 11.0 | 0.00 | 0.00 | 0.00 | 92 | 1011.9 |
| 20260906080034 | 66 | 30 | 8.0 | 12.0 | 0.00 | 0.00 | 0.00 | 91 | 1012.1 |
| 20260906074531 | 67 | 17 | 10.0 | 13.0 | 0.00 | 0.00 | 0.00 | 91 | 1012.2 |
| 20260906073031 | 67 | 15 | 10.0 | 13.0 | 0.00 | 0.00 | 0.00 | 90 | 1012.3 |
| 20260906071525 | 67 | 10 | 9.0 | 12.0 | 0.00 | 0.00 | 0.00 | 90 | 1012.2 |
| 20260906070023 | 67 | 13 | 8.0 | 12.0 | 0.00 | 0.00 | 0.00 | 88 | 1011.9 |
| 20260906064521 | 68 | 7 | 9.0 | 11.0 | 0.00 | 0.00 | 0.00 | 88 | 1012.2 |
| 20260906063018 | 68 | 15 | 10.0 | 13.0 | 0.00 | 0.00 | 0.00 | 87 | 1012.1 |
| 20260906061516 | 69 | 18 | 10.0 | 12.0 | 0.00 | 0.00 | 0.00 | 86 | 1012.2 |
| 20260906060024 | 69 | 15 | 10.0 | 12.0 | 0.00 | 0.00 | 0.00 | 86 | 1012.2 |
| 20260906054524 | 70 | 6 | 10.0 | 14.0 | 0.00 | 0.00 | 0.00 | 85 | 1012.3 |
| 20260906053012 | 70 | 10 | 11.0 | 14.0 | 0.00 | 0.00 | 0.00 | 84 | 1012.3 |
| 20260906051511 | 70 | 7 | 11.0 | 14.0 | 0.00 | 0.00 | 0.00 | 83 | 1012.4 |
| 20260906050111 | 71 | 359 | 11.0 | 14.0 | 0.00 | 0.00 | 0.00 | 82 | 1012.3 |
| 20260906044510 | 71 | 8 | 11.0 | 14.0 | 0.00 | 0.00 | 0.00 | 81 | 1012.5 |
| 20260906043015 | 71 | 6 | 10.0 | 12.0 | 0.00 | 0.00 | 0.00 | 81 | 1012.6 |
| 20260906041509 | 72 | 17 | 11.0 | 14.0 | 0.00 | 0.00 | 0.00 | 80 | 1012.4 |
| 20260906040022 | 72 | 3 | 9.0 | 11.0 | 0.00 | 0.00 | 0.00 | 80 | 1012.6 |
| 20260906034514 | 72 | 14 | 8.0 | 11.0 | 0.00 | 0.00 | 0.00 | 79 | 1012.6 |
| 20260906033021 | 72 | 19 | 8.0 | 11.0 | 0.00 | 0.00 | 0.00 | 79 | 1012.6 |
| 20260906031509 | 72 | 19 | 8.0 | 12.0 | 0.00 | 0.00 | 0.00 | 78 | 1012.5 |
| 20260906030005 | 72 | 20 | 10.0 | 13.0 | 0.00 | 0.00 | 0.00 | 78 | 1012.5 |
| 20260906024505 | 72 | 29 | 7.0 | 10.0 | 0.00 | 0.00 | 0.00 | 77 | 1012.4 |
| 20260906023004 | 72 | 38 | 6.0 | 9.0 | 0.00 | 0.00 | 0.00 | 76 | 1012.3 |
| 20260906021504 | 73 | 27 | 4.0 | 8.0 | 0.00 | 0.00 | 0.00 | 74 | 1012.3 |
| 20260906020000 | 74 | 19 | 9.0 | 11.0 | 0.00 | 0.00 | 0.00 | 72 | 1011.8 |
| 20260906014559 | 75 | 3 | 9.0 | 10.0 | 0.00 | 0.00 | 0.00 | 71 | 1011.6 |
| 20260906013101 | 76 | 352 | 7.0 | 9.0 | 0.00 | 0.00 | 0.00 | 70 | 1011.4 |
| 20260906011556 | 77 | 6 | 8.0 | 10.0 | 0.00 | 0.00 | 0.00 | 68 | 1011.2 |
| 20260906010055 | 78 | 15 | 9.0 | 13.0 | 0.00 | 0.00 | 0.00 | 67 | 1011.0 |
| 20260906004554 | 78 | 32 | 12.0 | 17.0 | 0.00 | 0.00 | 0.00 | 66 | 1010.9 |
| 20260906003054 | 79 | 36 | 12.0 | 16.0 | 0.00 | 0.00 | 0.00 | 66 | 1010.8 |
| 20260906001552 | 79 | 34 | 12.0 | 18.0 | 0.00 | 0.00 | 0.00 | 65 | 1010.7 |
| 20260906000051 | 80 | 36 | 14.0 | 24.0 | 0.00 | 0.00 | 0.00 | 65 | 1010.7 |
| 20260905234549 | 81 | 30 | 15.0 | 18.0 | 0.00 | 0.00 | 0.00 | 64 | 1010.3 |
| 20260905233056 | 81 | 36 | 12.0 | 17.0 | 0.00 | 0.00 | 0.00 | 63 | 1010.1 |
| 20260905231547 | 82 | 27 | 13.0 | 17.0 | 0.00 | 0.00 | 0.00 | 63 | 1010.0 |
| 20260905230046 | 82 | 21 | 11.0 | 16.0 | 0.00 | 0.00 | 0.00 | 63 | 1010.0 |
| 20260905224609 | 82 | 27 | 14.0 | 20.0 | 0.00 | 0.00 | 0.00 | 63 | 1010.0 |
| 20260905223046 | 83 | 4 | 10.0 | 18.0 | 0.00 | 0.00 | 0.00 | 62 | 1010.0 |
| 20260905221542 | 83 | 12 | 8.0 | 15.0 | 0.00 | 0.00 | 0.00 | 59 | 1009.9 |
| 20260905220041 | 83 | 348 | 7.0 | 12.0 | 0.00 | 0.00 | 0.00 | 61 | 1010.1 |
| 20260905214547 | 82 | 31 | 3.0 | 12.0 | 0.00 | 0.00 | 0.00 | 61 | 1010.1 |
| 20260905213041 | 82 | 342 | 0.0 | 14.0 | 0.00 | 0.00 | 0.00 | 60 | 1010.2 |
| 20260905211544 | 83 | 358 | 7.0 | 13.0 | 0.00 | 0.00 | 0.00 | 60 | 1010.1 |
| 20260905210043 | 82 | 340 | 7.0 | 13.0 | 0.00 | 0.00 | 0.00 | 60 | 1010.2 |
| 20260905204539 | 83 | 354 | 10.0 | 18.0 | 0.00 | 0.00 | 0.00 | 60 | 1010.2 |
| 20260905203037 | 83 | 356 | 6.0 | 13.0 | 0.00 | 0.00 | 0.00 | 60 | 1010.2 |
| 20260905201532 | 82 | 353 | 3.0 | 11.0 | 0.00 | 0.00 | 0.00 | 61 | 1010.4 |
| 20260905200033 | 81 | 42 | 7.0 | 14.0 | 0.00 | 0.00 | 0.00 | 63 | 1010.2 |
| 20260905194529 | 81 | 11 | 7.0 | 11.0 | 0.00 | 0.00 | 0.00 | 63 | 1010.1 |
| 20260905193026 | 80 | 335 | 4.0 | 12.0 | 0.00 | 0.00 | 0.00 | 64 | 1010.2 |
| 20260905191524 | 79 | 14 | 6.0 | 12.0 | 0.00 | 0.00 | 0.00 | 66 | 1010.3 |
| 20260905190023 | 79 | 19 | 8.0 | 14.0 | 0.00 | 0.00 | 0.00 | 65 | 1010.3 |
| 20260905184528 | 78 | 322 | 3.0 | 11.0 | 0.00 | 0.00 | 0.00 | 66 | 1010.5 |
| 20260905183021 | 78 | 335 | 8.0 | 14.0 | 0.00 | 0.00 | 0.00 | 67 | 1010.6 |
| 20260905181519 | 78 | 358 | 7.0 | 14.0 | 0.00 | 0.00 | 0.00 | 68 | 1010.5 |
| 20260905180016 | 78 | 298 | 9.0 | 12.0 | 0.00 | 0.00 | 0.00 | 68 | 1010.5 |
| 20260905174515 | 78 | 356 | 7.0 | 15.0 | 0.00 | 0.00 | 0.00 | 68 | 1010.7 |
| 20260905173013 | 78 | 356 | 7.0 | 10.0 | 0.00 | 0.00 | 0.00 | 66 | 1010.7 |
| 20260905171510 | 78 | 325 | 3.0 | 13.0 | 0.00 | 0.00 | 0.00 | 68 | 1011.0 |
| 20260905170009 | 77 | 23 | 4.0 | 10.0 | 0.00 | 0.00 | 0.00 | 68 | 1010.9 |
| 20260905164512 | 76 | 33 | 4.0 | 9.0 | 0.00 | 0.00 | 0.00 | 69 | 1010.8 |
| 20260905163002 | 76 | 31 | 3.0 | 10.0 | 0.00 | 0.00 | 0.00 | 70 | 1010.6 |
| 20260905161609 | 75 | 18 | 1.0 | 11.0 | 0.00 | 0.00 | 0.00 | 72 | 1010.4 |
| 20260905160055 | 74 | 49 | 6.0 | 10.0 | 0.00 | 0.00 | 0.00 | 73 | 1010.2 |
| 20260905154559 | 73 | 65 | 8.0 | 16.0 | 0.00 | 0.00 | 0.00 | 75 | 1009.9 |
| 20260905153048 | 72 | 81 | 9.0 | 15.0 | 0.00 | 0.00 | 0.00 | 76 | 1009.6 |
| 20260905151543 | 71 | 86 | 9.0 | 14.0 | 0.00 | 0.00 | 0.00 | 79 | 1009.7 |
| 20260905150039 | 70 | 56 | 4.0 | 12.0 | 0.00 | 0.00 | 0.00 | 81 | 1010.1 |
| 20260905144535 | 68 | 73 | 6.0 | 11.0 | 0.00 | 0.00 | 0.00 | 83 | 1009.9 |
| 20260905143033 | 67 | 40 | 2.0 | 8.0 | 0.00 | 0.00 | 0.00 | 88 | 1010.0 |
| 20260905141527 | 65 | 44 | 8.0 | 12.0 | 0.00 | 0.00 | 0.00 | 89 | 1009.9 |
| 20260905140025 | 65 | 45 | 11.0 | 15.0 | 0.00 | 0.00 | 0.00 | 92 | 1009.6 |
| 20260905134521 | 64 | 30 | 12.0 | 15.0 | 0.00 | 0.00 | 0.00 | 93 | 1009.8 |
| 20260905133027 | 63 | 23 | 9.0 | 14.0 | 0.00 | 0.00 | 0.00 | 93 | 1009.7 |
| 20260905131517 | 63 | 7 | 10.0 | 15.0 | 0.00 | 0.00 | 0.00 | 94 | 1009.3 |
| 20260905130008 | 63 | 11 | 13.0 | 17.0 | 0.00 | 0.00 | 0.00 | 93 | 1009.3 |
| 20260905124506 | 62 | 1 | 11.0 | 17.0 | 0.00 | 0.00 | 0.00 | 93 | 1009.1 |
| 20260905123003 | 62 | 354 | 8.0 | 13.0 | 0.00 | 0.00 | 0.00 | 93 | 1009.0 |
| 20260905121600 | 62 | 339 | 10.0 | 12.0 | 0.00 | 0.00 | 0.00 | 92 | 1008.6 |
| 20260905121501 | 62 | 334 | 10.0 | 14.0 | 0.00 | 0.00 | 0.00 | 92 | 1008.6 |
| 20260905120100 | 62 | 333 | 11.0 | 13.0 | 0.00 | 0.00 | 0.00 | 91 | 1008.4 |
| 20260905114602 | 63 | 323 | 10.0 | 13.0 | 0.00 | 0.00 | 0.00 | 90 | 1008.1 |
| 20260905113054 | 63 | 322 | 10.0 | 12.0 | 0.00 | 0.00 | 0.00 | 88 | 1008.1 |
| 20260905111549 | 63 | 326 | 10.0 | 11.0 | 0.00 | 0.00 | 0.00 | 87 | 1007.9 |